Retour au catalogue

KUIPER-00634

ActifCommunicationsLEO
NORAD 69785·PAYLOAD·🇺🇸 United States

Lancé Jul 2, 2026 depuis Cape Canaveral Space Force Station

Loading…

Prochains Passages (prochaines 24 heures)

TLE

FraisSource: CelesTrak SupGP

Époque: Sep 14, 2026, 23:15 UTC

1 69785C 26151Y   26257.96909722  .00000386  00000+0  50491-4 0  2572
2 69785  51.8986 256.1572 0000912  93.0058   2.8806 14.79931427    11

Suivez KUIPER-00634 en temps réel avec AllMySat

Download on the App Store